This is the latest recevied weather packets stored in our database for station/object DL1NER. If no packets are shown the sender has not sent any weather packets the latest 10 day(s).
| Time | Temp. | Humidity | Pressure | Rain* | Wind** | Luminosity | Snow |
|---|---|---|---|---|---|---|---|
| 1777207812 | 17.22° C | 39% | 1023.3 hPa | 0 mm | - | 0 W/m² | - |
| 1777207211 | 17.22° C | 38% | 1023.4 hPa | 0 mm | - | 0 W/m² | - |
| 1777206611 | 16.67° C | 36% | 1023.3 hPa | 0 mm | - | 0 W/m² | - |
| 1777206011 | 16.11° C | 38% | 1023.4 hPa | 0 mm | - | 0 W/m² | - |
| 1777205411 | 16.11° C | 36% | 1023.5 hPa | 0 mm | - | 0 W/m² | - |
| 1777204811 | 16.67° C | 37% | 1023.5 hPa | 0 mm | - | 0 W/m² | - |
| 1777204211 | 16.67° C | 35% | 1023.4 hPa | 0 mm | - | 0 W/m² | - |
| 1777203611 | 16.67° C | 35% | 1023.5 hPa | 0 mm | - | 0 W/m² | - |
| 1777203011 | 16.11° C | 38% | 1023.7 hPa | 0 mm | - | 0 W/m² | - |
| 1777202412 | 16.11° C | 43% | 1023.8 hPa | 0 mm | - | 0 W/m² | - |
| 1777201811 | 15.56° C | 42% | 1023.8 hPa | 0 mm | - | 0 W/m² | - |
| 1777201210 | 15.56° C | 44% | 1023.9 hPa | 0 mm | - | 0 W/m² | - |
| 1777200611 | 15.56° C | 47% | 1023.9 hPa | 0 mm | - | 0 W/m² | - |
| 1777200010 | 15.56° C | 46% | 1023.9 hPa | 0 mm | - | 0 W/m² | - |
| 1777199411 | 15° C | 46% | 1023.9 hPa | 0 mm | - | 0 W/m² | - |
| 1777198811 | 15° C | 45% | 1023.9 hPa | 0 mm | - | 0 W/m² | - |
| 1777198211 | 14.44° C | 47% | 1023.8 hPa | 0 mm | - | 0 W/m² | - |
| 1777197611 | 14.44° C | 48% | 1023.9 hPa | 0 mm | - | 0 W/m² | - |
| 1777197011 | 14.44° C | 49% | 1023.9 hPa | 0 mm | - | 0 W/m² | - |
| 1777196411 | 14.44° C | 48% | 1023.9 hPa | 0 mm | - | 0 W/m² | - |
| 1777195810 | 13.89° C | 50% | 1023.9 hPa | 0 mm | - | 0 W/m² | - |
| 1777195211 | 13.89° C | 50% | 1023.9 hPa | 0 mm | - | 0 W/m² | - |
| 1777194610 | 13.33° C | 53% | 1023.8 hPa | 0 mm | - | 0 W/m² | - |
| 1777194011 | 13.33° C | 53% | 1023.8 hPa | 0 mm | - | 0 W/m² | - |
| 1777193410 | 13.33° C | 50% | 1023.9 hPa | 0 mm | - | 0 W/m² | - |
* Rain latest hour (hover to see other rain measurements)
** Current wind speed in m/s (hover to see current wind gust speed)